Regional Weather Roundup
Issued by NWS Charleston, SC

Current Version | Previous Version | Graphics & Text | Print | Product List | Glossary On
Versions: 1 2 3 4 5 6 7 8 9 10 11 12 13 14 15 16 17 18 19 20 21 22 23 24 25 26 27 28 29 30 31 32 33 34 35 36 37 38 39 40 41 42 43 44 45 46 47 48 49 50
000 ASUS42 KCHS 161112 RWRCHS Regional Weather Roundup National Weather Service Charleston SC 600 AM EST TUE JAN 16 2018 NOTE: "fair" indicates few or no clouds below 12,000 feet with no significant weather and/or obstructions to visibility. Not all stations are quality controlled. Use data with caution, especially dewpoint observations. SCZ027-030-031-034>040-042>050-161200- ...Southeast South Carolina... CITY SKY/WX TMP DP RH WIND PRES REMARKS N Charleston FAIR 30 18 60 CALM 30.46R Waterfront Prk NOT AVBL Mount Pleasant FAIR 30 23 74 CALM 30.46R Johns Island FAIR 32 21 64 N3 30.46R Pinopolis N/A 36 23 60 NE7 30.38R WCI 30 Moncks Corner FAIR 25 23 93 CALM 30.47R Summerville FAIR 27 25 93 CALM 30.47S Beaufort MCAS FAIR 29 25 85 N3 30.46R Beaufort Arpt FAIR 32 23 69 N7 30.45R WCI 26 Hilton Head Is NOT AVBL Walterboro FAIR 25 23 93 CALM 30.47S Allendale FAIR 27 23 86 CALM 30.46R ...Southern Midlands and Pee Dee... CITY SKY/WX TMP DP RH WIND PRES REMARKS Georgetown FAIR 27 21 80 CALM 30.47S Kingstree FAIR 21 19 93 CALM 30.46S Orangeburg FAIR 25 22 88 CALM 30.46R Barnwell N/A 25 21 86 CALM 30.46R Aiken FAIR 23 19 86 CALM 30.46S Manning FAIR 25 21 86 MISG 30.46S Columbia FAIR 23 21 92 CALM 30.45S Sumter FAIR 24 16 71 CALM 30.43S Florence FAIR 24 17 74 CALM 30.46S Myrtle Beach FAIR 28 22 78 N3 30.47S N Myrtle Beach FAIR 28 22 78 N3 30.45S $$ GAZ063-065-086>088-099>101-113>116-118-119-134>141-150-161200- ...Southeast Georgia... CITY SKY/WX TMP DP RH WIND PRES REMARKS Savannah Arpt FAIR 28 24 85 N5 30.46R WCI 23 Hunter AAF FAIR 32 23 67 CALM 30.42R Fort Stewart FAIR 29 24 83 N3 30.43R Statesboro FAIR 27 24 91 CALM 30.45S Sylvania FAIR 28 27 96 CALM 30.46R Claxton FAIR 27 26 96 CALM 30.46R ...CSRA, Central and far Southeast Georgia... CITY SKY/WX TMP DP RH WIND PRES REMARKS Thomson FAIR 22 20 93 CALM 30.49R Augusta-Bush FAIR 24 22 91 CALM 30.46R Augusta-Daniel FAIR 31 23 72 CALM 30.44S Swainsboro FAIR 30 28 93 E3 30.44F Vidalia FAIR 32 28 86 CALM 30.44F Eastman FAIR 27 22 81 CALM 30.47R Hazlehurst FAIR 31 30 94 CALM 30.43S Alma FAIR 29 26 89 CALM 30.43S Waycross FAIR 29 27 90 CALM 30.44R Jesup FAIR 30 27 86 CALM 30.44S Baxley FAIR 28 28 100 CALM 30.43S Brunswick FAIR 30 30 100 CALM 30.44S FOG Saint Simons FAIR 35 33 92 N6 30.43R WCI 30 $$ SCZ027-028-034-036>038-045-046-048>050-GAZ119-141-161200- ...Lake and Supplemental Coastal Observations... STATION/POSITION TIME TEMP WIND PRES WAVE SWELL AIR SEA DIR/SP/G HT/PER HT/PER/DIR (UTC) (F) (DEG/KT/KT) (MB) (FT/S) (FT/S/D) Winyah Bay 0945 31 340/ 5 1031.0 Lake Murray 1020 30 CALM 1029.8 ACE Basin NERRS 0945 29 340/ 2 1031.0 Fort Pulaski 1042 38 46 30/ 6/ 7 1031.0R Sapelo Island 1000 35 20/ 6 1030.0 $$ ANZ835-935-AMZ111-154-330-350-352-354-370-450-454-472-161200- ...C-MAN and Buoy Observations... STATION/POSITION TIME TEMP WIND PRES WAVE SWELL AIR SEA DIR/SP/G HT/PER HT/PER/DIR (UTC) (F) (DEG/KT/KT) (MB) (FT/S) (FT/S/D) Buoy 41004 1050 51 70 10/ 12/ 17 1029.8R 4/10 3/100/10 Buoy 41008 1050 47 51 40/ 14/ 17 1029.6R 4/10 3/120/10 Folly Beach CMAN 1000 38 10/ 10/ 12 1031.2R Capers Nearshore NOT AVBL Fripp Nearshore NOT AVBL STATION/POSITION TIME TEMP WIND PRES WAVE SWELL AIR SEA DIR/SP/G HT/PER HT/PER/DIR (UTC) (F) (DEG/KT/KT) (MB) (FT/S) (FT/S/D) 5E St. Marys GA 1030 51 N/A 4/ 9 2/ 90/11 Frying Pan Buoy 1050 47 59 360/ 12/ 16 1030.0R 4/10 3/ 80/10 Buoy 41025 1100 44 66 340/ 19/ 23 1029.5 Cape Lookout NC 1100 360/ 3/ 4 1030.4R Buoy 41002 1050 66 70 40/ 10/ 14 1025.9R 10/11 10/ 70/11 Buoy 41010 NOT AVBL St Augustine FL 1100 48 50 340/ 11/ 12 1028.9R $$

USA.gov is the U.S. government's official web portal to all federal, state and local government web resources and services.